Time,TemperatureF,DewpointF,PressureIn,WindDirection,WindDirectionDegrees,WindSpeedMPH,WindSpeedGustMPH,Humidity,HourlyPrecipIn,Conditions,Clouds,dailyrainin,SoftwareType,DateUTC
2013-09-04 00:04:00,66.6,56.1,29.73,ESE,112,3.7,-999.0,69,-99.99,,,0.00,Acu-Link.com,2013-09-04 04:04:00,
2013-09-04 00:19:00,67.1,56.2,29.72,West,270,4.7,-999.0,68,-99.99,,,0.00,Acu-Link.com,2013-09-04 04:19:00,
2013-09-04 00:34:00,68.0,56.2,29.72,West,270,6.3,-999.0,66,-99.99,,,0.00,Acu-Link.com,2013-09-04 04:34:00,
2013-09-04 00:53:00,68.0,56.2,29.72,WSW,247,7.8,-999.0,66,-99.99,,,0.00,Acu-Link.com,2013-09-04 04:53:00,
2013-09-04 01:21:00,68.4,57.0,29.73,West,270,6.3,-999.0,67,-99.99,,,0.00,Acu-Link.com,2013-09-04 05:21:00,
2013-09-04 01:37:00,68.4,57.0,29.73,SE,135,6.3,-999.0,67,-99.99,,,0.00,Acu-Link.com,2013-09-04 05:37:00,
2013-09-04 01:58:00,68.4,57.0,29.74,West,270,8.3,-999.0,67,-99.99,,,0.00,Acu-Link.com,2013-09-04 05:58:00,
2013-09-04 02:20:00,68.9,57.5,29.74,WNW,292,5.3,-999.0,67,-99.99,,,0.00,Acu-Link.com,2013-09-04 06:20:00,
2013-09-04 02:41:00,68.9,57.5,29.74,SSW,202,5.8,-999.0,67,-99.99,,,0.00,Acu-Link.com,2013-09-04 06:41:00,
2013-09-04 02:57:00,69.3,57.9,29.77,NW,315,6.8,-999.0,67,-99.99,,,0.00,Acu-Link.com,2013-09-04 06:57:00,
2013-09-04 03:12:00,68.4,58.2,29.78,West,270,8.3,-999.0,70,-99.99,,,0.00,Acu-Link.com,2013-09-04 07:12:00,
2013-09-04 03:28:00,66.9,57.6,29.78,NW,315,3.7,-999.0,72,-99.99,,,0.00,Acu-Link.com,2013-09-04 07:28:00,
2013-09-04 03:43:00,66.7,58.1,29.79,NNW,337,7.3,-999.0,74,-99.99,,,0.00,Acu-Link.com,2013-09-04 07:43:00,
2013-09-04 03:58:00,66.6,58.4,29.79,NNW,337,16.6,-999.0,75,-99.99,,,0.00,Acu-Link.com,2013-09-04 07:58:00,
2013-09-04 04:19:00,65.7,59.4,29.80,NNW,337,23.8,-999.0,80,-99.99,,,0.00,Acu-Link.com,2013-09-04 08:19:00,
2013-09-04 04:35:00,63.9,58.6,29.81,NNW,337,22.2,-999.0,83,-99.99,,,0.00,Acu-Link.com,2013-09-04 08:35:00,
2013-09-04 04:52:00,60.3,56.7,29.83,NNW,337,23.3,-999.0,88,-99.99,,,0.00,Acu-Link.com,2013-09-04 08:52:00,
2013-09-04 05:10:00,60.3,56.7,29.84,NNW,337,22.2,-999.0,88,-99.99,,,0.00,Acu-Link.com,2013-09-04 09:10:00,
2013-09-04 05:29:00,58.8,54.3,29.87,NNW,337,19.1,-999.0,85,-99.99,,,0.00,Acu-Link.com,2013-09-04 09:29:00,
2013-09-04 05:45:00,58.8,54.3,29.88,NNE,22,20.2,-999.0,85,-99.99,,,0.00,Acu-Link.com,2013-09-04 09:45:00,
2013-09-04 06:14:00,55.9,52.4,29.90,NNW,337,20.7,-999.0,88,-99.99,,,0.00,Acu-Link.com,2013-09-04 10:14:00,
2013-09-04 06:37:00,55.4,51.0,29.91,NNW,337,18.1,-999.0,85,-99.99,,,0.00,Acu-Link.com,2013-09-04 10:37:00,
2013-09-04 07:02:00,56.8,50.7,29.93,NNE,22,16.1,-999.0,80,-99.99,,,0.00,Acu-Link.com,2013-09-04 11:02:00,
2013-09-04 07:17:00,56.8,50.7,29.94,NNW,337,17.1,-999.0,80,-99.99,,,0.00,Acu-Link.com,2013-09-04 11:17:00,
2013-09-04 07:42:00,56.5,50.4,29.95,NNE,22,15.0,-999.0,80,-99.99,,,0.00,Acu-Link.com,2013-09-04 11:42:00,
2013-09-04 08:03:00,56.5,50.4,29.96,North,0,16.6,-999.0,80,-99.99,,,0.00,Acu-Link.com,2013-09-04 12:03:00,
2013-09-04 08:41:00,55.9,49.5,29.97,NNE,22,16.1,-999.0,79,-99.99,,,0.00,Acu-Link.com,2013-09-04 12:41:00,
2013-09-04 08:57:00,55.9,49.8,29.97,NNE,22,16.1,-999.0,80,-99.99,,,0.00,Acu-Link.com,2013-09-04 12:57:00,
2013-09-04 09:14:00,55.8,49.0,29.97,NNE,22,16.1,-999.0,78,-99.99,,,0.00,Acu-Link.com,2013-09-04 13:14:00,
2013-09-04 09:30:00,55.9,48.8,29.98,NNE,22,15.0,-999.0,77,-99.99,,,0.00,Acu-Link.com,2013-09-04 13:30:00,
2013-09-04 09:45:00,55.9,48.1,29.99,NNE,22,16.6,-999.0,75,-99.99,,,0.00,Acu-Link.com,2013-09-04 13:45:00,
2013-09-04 10:03:00,55.9,48.4,30.00,NNE,22,13.0,-999.0,76,-99.99,,,0.00,Acu-Link.com,2013-09-04 14:03:00,
2013-09-04 10:21:00,56.1,49.7,30.01,NNE,22,16.6,-999.0,79,-99.99,,,0.00,Acu-Link.com,2013-09-04 14:21:00,
2013-09-04 10:36:00,55.6,48.8,30.01,NNE,22,14.5,-999.0,78,-99.99,,,0.00,Acu-Link.com,2013-09-04 14:36:00,
2013-09-04 10:51:00,55.8,48.7,30.02,NNE,22,11.9,-999.0,77,-99.99,,,0.00,Acu-Link.com,2013-09-04 14:51:00,
2013-09-04 11:06:00,55.9,47.7,30.02,North,0,12.5,-999.0,74,-99.99,,,0.00,Acu-Link.com,2013-09-04 15:06:00,
2013-09-04 11:24:00,55.8,47.3,30.03,NNW,337,15.5,-999.0,73,-99.99,,,0.00,Acu-Link.com,2013-09-04 15:24:00,
2013-09-04 11:46:00,56.5,47.2,30.03,NNW,337,12.5,-999.0,71,-99.99,,,0.00,Acu-Link.com,2013-09-04 15:46:00,
2013-09-04 12:01:00,56.7,48.1,30.04,NNW,337,15.5,-999.0,73,-99.99,,,0.00,Acu-Link.com,2013-09-04 16:01:00,
2013-09-04 12:16:00,56.3,49.2,30.04,NNE,22,13.0,-999.0,77,-99.99,,,0.00,Acu-Link.com,2013-09-04 16:16:00,
2013-09-04 12:33:00,56.5,47.2,30.04,North,0,10.9,-999.0,71,-99.99,,,0.00,Acu-Link.com,2013-09-04 16:33:00,
2013-09-04 12:50:00,56.7,46.3,30.04,North,0,13.5,-999.0,68,-99.99,,,0.00,Acu-Link.com,2013-09-04 16:50:00,
2013-09-04 13:12:00,56.5,45.7,30.04,North,0,14.0,-999.0,67,-99.99,,,0.00,Acu-Link.com,2013-09-04 17:12:00,
2013-09-04 13:28:00,56.7,46.3,30.03,North,0,10.4,-999.0,68,-99.99,,,0.00,Acu-Link.com,2013-09-04 17:28:00,
2013-09-04 13:43:00,57.2,45.5,30.03,North,0,8.9,-999.0,65,-99.99,,,0.00,Acu-Link.com,2013-09-04 17:43:00,
2013-09-04 13:58:00,57.2,46.3,30.03,North,0,9.9,-999.0,67,-99.99,,,0.00,Acu-Link.com,2013-09-04 17:58:00,
2013-09-04 14:14:00,57.0,46.2,30.03,NNE,22,7.8,-999.0,67,-99.99,,,0.00,Acu-Link.com,2013-09-04 18:14:00,
2013-09-04 14:29:00,57.2,46.3,30.03,NNE,22,8.3,-999.0,67,-99.99,,,0.00,Acu-Link.com,2013-09-04 18:29:00,
2013-09-04 14:45:00,56.7,45.9,30.03,NNE,22,9.4,-999.0,67,-99.99,,,0.00,Acu-Link.com,2013-09-04 18:45:00,
2013-09-04 15:00:00,57.0,46.2,30.03,NNE,22,10.4,-999.0,67,-99.99,,,0.00,Acu-Link.com,2013-09-04 19:00:00,
2013-09-04 15:15:00,57.0,46.5,30.03,NNE,22,10.4,-999.0,68,-99.99,,,0.00,Acu-Link.com,2013-09-04 19:15:00,
2013-09-04 15:42:00,57.0,47.7,30.03,North,0,8.9,-999.0,71,-99.99,,,0.00,Acu-Link.com,2013-09-04 19:42:00,
2013-09-04 15:57:00,57.2,47.9,30.04,NNE,22,8.9,-999.0,71,-99.99,,,0.00,Acu-Link.com,2013-09-04 19:57:00,
2013-09-04 16:12:00,57.0,47.3,30.03,NNE,22,8.3,-999.0,70,-99.99,,,0.00,Acu-Link.com,2013-09-04 20:12:00,
2013-09-04 16:27:00,57.4,47.7,30.03,NE,45,6.8,-999.0,70,-99.99,,,0.00,Acu-Link.com,2013-09-04 20:27:00,
2013-09-04 16:42:00,57.6,47.1,30.03,NE,45,6.3,-999.0,68,-99.99,,,0.00,Acu-Link.com,2013-09-04 20:42:00,
2013-09-04 16:57:00,57.4,47.7,30.02,NE,45,7.3,-999.0,70,-99.99,,,0.00,Acu-Link.com,2013-09-04 20:57:00,
2013-09-04 17:12:00,56.7,48.1,30.02,NNE,22,7.8,-999.0,73,-99.99,,,0.00,Acu-Link.com,2013-09-04 21:12:00,
2013-09-04 17:28:00,55.9,47.7,30.02,NE,45,9.4,-999.0,74,-99.99,,,0.00,Acu-Link.com,2013-09-04 21:28:00,
2013-09-04 17:43:00,56.1,47.9,30.02,NNE,22,8.3,-999.0,74,-99.99,,,0.00,Acu-Link.com,2013-09-04 21:43:00,
2013-09-04 17:58:00,57.0,48.1,30.01,NNE,22,7.8,-999.0,72,-99.99,,,0.00,Acu-Link.com,2013-09-04 21:58:00,
2013-09-04 18:13:00,57.0,48.1,30.01,NE,45,7.3,-999.0,72,-99.99,,,0.00,Acu-Link.com,2013-09-04 22:13:00,
2013-09-04 18:28:00,57.0,49.2,30.01,NNE,22,8.9,-999.0,75,-99.99,,,0.00,Acu-Link.com,2013-09-04 22:28:00,
2013-09-04 18:43:00,57.2,48.3,30.01,NNE,22,6.3,-999.0,72,-99.99,,,0.00,Acu-Link.com,2013-09-04 22:43:00,
2013-09-04 18:58:00,57.2,49.0,30.01,NNE,22,6.3,-999.0,74,-99.99,,,0.00,Acu-Link.com,2013-09-04 22:58:00,
2013-09-04 19:13:00,57.2,48.6,30.01,NNE,22,7.3,-999.0,73,-99.99,,,0.00,Acu-Link.com,2013-09-04 23:13:00,
2013-09-04 19:28:00,56.3,48.8,30.02,NE,45,7.3,-999.0,76,-99.99,,,0.00,Acu-Link.com,2013-09-04 23:28:00,
2013-09-04 19:43:00,55.8,48.3,30.03,NNE,22,9.9,-999.0,76,-99.99,,,0.00,Acu-Link.com,2013-09-04 23:43:00,
2013-09-04 19:58:00,55.4,48.3,30.03,NNW,337,10.9,-999.0,77,-99.99,,,0.00,Acu-Link.com,2013-09-04 23:58:00,
2013-09-04 20:13:00,55.4,49.0,30.03,NNE,22,7.3,-999.0,79,-99.99,,,0.00,Acu-Link.com,2013-09-05 00:13:00,
2013-09-04 20:28:00,55.8,49.0,30.04,NNW,337,9.4,-999.0,78,-99.99,,,0.00,Acu-Link.com,2013-09-05 00:28:00,
2013-09-04 20:43:00,55.6,48.8,30.04,NW,315,7.3,-999.0,78,-99.99,,,0.00,Acu-Link.com,2013-09-05 00:43:00,
2013-09-04 20:58:00,54.3,47.9,30.04,WNW,292,0.0,-999.0,79,-99.99,,,0.00,Acu-Link.com,2013-09-05 00:58:00,
2013-09-04 21:14:00,51.1,47.1,30.04,WNW,292,0.0,-999.0,86,-99.99,,,0.00,Acu-Link.com,2013-09-05 01:14:00,
2013-09-04 21:29:00,49.1,45.7,30.05,WNW,292,0.0,-999.0,88,-99.99,,,0.00,Acu-Link.com,2013-09-05 01:29:00,
2013-09-04 21:44:00,48.6,45.5,30.05,WNW,292,3.2,-999.0,89,-99.99,,,0.00,Acu-Link.com,2013-09-05 01:44:00,
2013-09-04 22:00:00,47.7,44.9,30.05,WNW,292,2.7,-999.0,90,-99.99,,,0.00,Acu-Link.com,2013-09-05 02:00:00,
2013-09-04 22:15:00,47.3,44.5,30.06,WNW,292,3.2,-999.0,90,-99.99,,,0.00,Acu-Link.com,2013-09-05 02:15:00,
2013-09-04 22:30:00,46.9,44.1,30.06,WNW,292,2.7,-999.0,90,-99.99,,,0.00,Acu-Link.com,2013-09-05 02:30:00,
2013-09-04 22:45:00,46.6,44.1,30.07,WNW,292,3.7,-999.0,91,-99.99,,,0.00,Acu-Link.com,2013-09-05 02:45:00,
2013-09-04 23:01:00,46.4,44.2,30.06,WNW,292,2.7,-999.0,92,-99.99,,,0.00,Acu-Link.com,2013-09-05 03:01:00,
2013-09-04 23:16:00,46.0,43.8,30.07,WNW,292,2.7,-999.0,92,-99.99,,,0.00,Acu-Link.com,2013-09-05 03:16:00,
2013-09-04 23:31:00,45.5,43.6,30.06,WNW,292,0.0,-999.0,93,-99.99,,,0.00,Acu-Link.com,2013-09-05 03:31:00,
2013-09-04 23:47:00,45.5,43.6,30.07,WNW,292,0.0,-999.0,93,-99.99,,,0.00,Acu-Link.com,2013-09-05 03:47:00,